Andrews AFB, MD

9:16 PM EDT on October 20, 2017 (GMT -0400)
Andrews Air Force Base-Naf

Weather History for KADW - February, 2013

Change the Weather History Date:

Friday, February 22, 2013

  Actual Average Record
Temperature  
Mean Temperature 31 °F -  
Max Temperature 33 °F 46 °F 68 °F (1997)
Min Temperature 29 °F 28 °F 17 °F (1999)
Degree Days  
Heating Degree Days 34    
Moisture  
Dew Point 24 °F    
Average Humidity 74    
Maximum Humidity 94    
Minimum Humidity 54    
Precipitation  
Precipitation 0.00 in - - ()
Sea Level Pressure  
Sea Level Pressure 30.31 in    
Wind  
Wind Speed 6 mph (ESE)    
Max Wind Speed 10 mph    
Max Gust Speed -    
Visibility 9 miles    
Events Rain , Snow    
Averages and records for this station are not official NWS values.
T = Trace of Precipitation, MM = Missing Value Source: NWS Daily Summary

Daily Weather History Graph

Daily Weather History Graph

Search for Another Location

Airport or City:

Trip Planner

Search our weather history database for the weather conditions in past years. The results will help you decide how hot, cold, wet, or windy it might be!

Date:

Astronomy

Feb. 22, 2013 Rise Set
Actual Time 6:49 AM EST 5:53 PM EST
Civil Twilight 6:22 AM EST 6:20 PM EST
Nautical Twilight 5:51 AM EST 6:51 PM EST
Astronomical Twilight 5:20 AM EST 7:21 PM EST
Moon 3:03 PM EST (2/22) 4:31 AM EST (2/22)
Length of Visible Light 11h 57m
Length of Day
11h 03m
Waxing Gibbous, 90% of the Moon is Illuminated
Feb 22
Waxing Gibbous
Feb 25
Full
Mar 4
Last Quarter
Mar 11
New
Mar 19
First Quarter

Hourly Weather History & Observations

Time (EST) Temp. Windchill Dew Point Humidity Pressure Visibility Wind Dir Wind Speed Gust Speed Precip Events Conditions
12:55 AM 29.7 °F 20.7 °F 14.9 °F 54% 30.32 in 10.0 mi North 10.4 mph - N/A   Clear
1:55 AM 29.1 °F 23.0 °F 14.9 °F 55% 30.33 in 10.0 mi NNW 5.8 mph - N/A   Clear
2:55 AM 29.7 °F 22.8 °F 14.9 °F 54% 30.34 in 10.0 mi NW 6.9 mph - N/A   Clear
3:55 AM 30.0 °F 24.1 °F 15.6 °F 55% 30.37 in 10.0 mi NNW 5.8 mph - N/A   Clear
4:55 AM 30.4 °F 26.9 °F 15.6 °F 54% 30.39 in 10.0 mi NW 3.5 mph - N/A   Clear
5:55 AM 29.5 °F 22.5 °F 16.7 °F 59% 30.37 in 10.0 mi NNE 6.9 mph - N/A   Clear
6:55 AM 29.5 °F 22.5 °F 16.3 °F 58% 30.37 in 10.0 mi NE 6.9 mph - N/A   Scattered Clouds
7:55 AM 30.0 °F 23.2 °F 16.5 °F 57% 30.39 in 10.0 mi NE 6.9 mph - N/A   Overcast
8:55 AM 30.9 °F 22.8 °F 18.3 °F 60% 30.37 in 10.0 mi ENE 9.2 mph - N/A   Scattered Clouds
9:55 AM 31.8 °F 23.9 °F 19.0 °F 59% 30.35 in 10.0 mi East 9.2 mph - N/A   Scattered Clouds
10:55 AM 31.8 °F 23.3 °F 19.0 °F 59% 30.34 in 10.0 mi ESE 10.4 mph - N/A   Mostly Cloudy
11:52 AM 32.0 °F 25.6 °F 19.4 °F 60% 30.35 in 10.0 mi SE 6.9 mph - N/A   Overcast
11:55 AM 32.2 °F 26.7 °F 19.6 °F 60% 30.35 in 10.0 mi ESE 5.8 mph - 0.00 in   Overcast
12:13 PM 32.0 °F 26.4 °F 19.4 °F 60% 30.35 in 10.0 mi ESE 5.8 mph - N/A   Overcast
12:41 PM 33.8 °F 29.6 °F 19.4 °F 56% 30.33 in 10.0 mi ESE 4.6 mph - N/A   Overcast
12:55 PM 32.4 °F 27.9 °F 20.7 °F 62% 30.32 in 10.0 mi SE 4.6 mph - 0.00 in Rain Light Rain
1:04 PM 32.0 °F 28.7 °F 21.2 °F 64% 30.32 in 10.0 mi SE 3.5 mph - N/A   Overcast
1:18 PM 33.8 °F 29.6 °F 21.2 °F 60% 30.33 in 10.0 mi ESE 4.6 mph - N/A Rain Light Rain
1:49 PM 32.0 °F 27.5 °F 23.0 °F 69% 30.32 in 10.0 mi SSE 4.6 mph - N/A   Overcast
1:51 PM 32.0 °F 27.5 °F 23.0 °F 69% 30.32 in 10.0 mi SSE 4.6 mph - N/A   Light Drizzle
1:55 PM 32.2 °F 26.7 °F 24.1 °F 72% 30.32 in 10.0 mi SSE 5.8 mph - 0.00 in Rain Light Rain
2:55 PM 31.6 °F 26.0 °F 26.2 °F 80% 30.30 in 5.0 mi East 5.8 mph - 0.02 in Rain Light Freezing Rain
3:03 PM 31.6 °F 27.0 °F 26.2 °F 80% 30.30 in 8.0 mi ESE 4.6 mph - 0.02 in   Light Freezing Drizzle
3:23 PM 32.0 °F 27.5 °F 26.6 °F 80% 30.30 in 9.0 mi SE 4.6 mph - N/A   Overcast
3:55 PM 32.0 °F 27.5 °F 26.4 °F 80% 30.30 in 10.0 mi SE 4.6 mph - 0.00 in   Overcast
4:40 PM 32.0 °F 27.5 °F 26.6 °F 80% 30.30 in 10.0 mi ESE 4.6 mph - N/A Rain Light Rain
4:48 PM 32.0 °F 27.5 °F 26.6 °F 80% 30.30 in 10.0 mi ESE 4.6 mph - N/A   Light Freezing Drizzle
4:55 PM 32.0 °F 28.7 °F 26.6 °F 80% 30.29 in 10.0 mi ESE 3.5 mph - N/A   Light Freezing Drizzle
5:01 PM 32.0 °F 27.5 °F 26.6 °F 80% 30.29 in 10.0 mi East 4.6 mph - N/A   Overcast
5:24 PM 32.0 °F 26.4 °F 26.6 °F 80% 30.29 in 10.0 mi ESE 5.8 mph - N/A Rain Light Freezing Rain
5:31 PM 32.0 °F 27.5 °F 28.4 °F 87% 30.29 in 10.0 mi East 4.6 mph - N/A   Overcast
5:55 PM 32.0 °F 28.7 °F 28.4 °F 87% 30.29 in 10.0 mi ESE 3.5 mph - 0.00 in   Overcast
6:22 PM 32.0 °F 27.5 °F 28.4 °F 87% 30.29 in 10.0 mi ESE 4.6 mph - N/A Rain Light Freezing Rain
6:30 PM 32.0 °F 28.7 °F 28.4 °F 87% 30.29 in 10.0 mi ESE 3.5 mph - N/A   Overcast
6:43 PM 32.0 °F 27.5 °F 28.4 °F 87% 30.29 in 10.0 mi East 4.6 mph - N/A Rain Light Freezing Rain
6:48 PM 32.0 °F 26.4 °F 28.4 °F 87% 30.28 in 10.0 mi ESE 5.8 mph - N/A   Overcast
6:55 PM 31.5 °F 25.8 °F 28.2 °F 88% 30.28 in 10.0 mi ESE 5.8 mph - 0.00 in   Overcast
7:55 PM 32.0 °F 28.7 °F 28.4 °F 87% 30.29 in 10.0 mi East 3.5 mph - N/A   Light Freezing Drizzle
7:58 PM 32.0 °F 28.7 °F 28.4 °F 87% 30.30 in 10.0 mi East 3.5 mph - N/A Rain Light Freezing Rain
8:55 PM 32.0 °F 28.7 °F 28.4 °F 87% 30.27 in 10.0 mi East 3.5 mph - N/A   Overcast
9:02 PM 32.0 °F 28.7 °F 30.2 °F 93% 30.27 in 10.0 mi East 3.5 mph - N/A   Light Freezing Drizzle
9:55 PM 31.8 °F 27.3 °F 29.5 °F 91% 30.26 in 8.0 mi East 4.6 mph - N/A Rain Light Freezing Rain
10:23 PM 32.0 °F 27.5 °F 30.2 °F 93% 30.26 in 9.0 mi ESE 4.6 mph - N/A Rain , Snow Light Freezing Rain
10:38 PM 32.0 °F 28.7 °F 30.2 °F 93% 30.26 in 7.0 mi ESE 3.5 mph - N/A   Light Freezing Drizzle
10:55 PM 32.0 °F - 30.2 °F 93% 30.24 in 7.0 mi SE 2.3 mph - N/A   Light Drizzle
11:35 PM 32.0 °F 28.7 °F 30.2 °F 93% 30.24 in 5.0 mi East 3.5 mph - N/A   Light Freezing Drizzle
11:55 PM 31.6 °F 28.3 °F 30.2 °F 94% 30.23 in 5.0 mi East 3.5 mph - 0.00 in   Light Freezing Drizzle